This is the latest recevied weather packets stored in our database for station/object VE3DVC. If no packets are shown the sender has not sent any weather packets the latest 1 day(s).
| Time | Temp. | Humidity | Pressure | Rain* | Wind** | Luminosity | Snow |
|---|---|---|---|---|---|---|---|
| 1778103508 | 11.67° C | 57% | 1010.8 hPa | 0 mm | - | - | - |
| 1778098581 | 12.22° C | 57% | 1010.3 hPa | 0 mm | - | - | - |
| 1778094981 | 12.22° C | 60% | 1010.2 hPa | 0 mm | - | - | - |
| 1778094261 | 12.22° C | 61% | 1010.3 hPa | 0 mm | - | - | - |
| 1778091381 | 13.33° C | 62% | 1009.6 hPa | 0 mm | - | - | - |
| 1778090663 | 13.89° C | 63% | 1009.4 hPa | 0 mm | - | - | - |
| 1778089941 | 13.33° C | 69% | 1009.3 hPa | 0 mm | - | - | - |
| 1778086340 | 12.78° C | 74% | 1009.4 hPa | 0 mm | - | - | - |
| 1778082740 | 11.67° C | 87% | 1009.1 hPa | 0 mm | - | - | - |
| 1778082021 | 11.11° C | 90% | 1009.2 hPa | 0 mm | - | - | - |
| 1778078421 | 9.44° C | 91% | 1008.9 hPa | 0 mm | - | - | - |
| 1778076981 | 8.89° C | 91% | 1008.6 hPa | 0 mm | - | - | - |
| 1778076148 | 8.89° C | 91% | 1008.6 hPa | 0 mm | - | - | - |
| 1778073336 | 8.33° C | 91% | 1008.7 hPa | 0 mm | - | - | - |
| 1778072616 | 8.33° C | 91% | 1008.7 hPa | 0 mm | - | - | - |
| 1778066980 | 8.33° C | 91% | 1008 hPa | 0 mm | - | - | - |
| 1778064100 | 8.33° C | 91% | 1007 hPa | 0 mm | - | - | - |
| 1778063380 | 8.89° C | 91% | 1007 hPa | 0 mm | - | - | - |
| 1778061940 | 8.89° C | 91% | 1007.7 hPa | 0 mm | - | - | - |
| 1778061219 | 8.89° C | 91% | 1007.5 hPa | 0 mm | - | - | - |
| 1778059059 | 8.89° C | 91% | 1007.2 hPa | 0 mm | - | - | - |
| 1778058340 | 8.89° C | 91% | 1007.9 hPa | 0 mm | - | - | - |
| 1778056899 | 8.89° C | 91% | 1007.7 hPa | 0 mm | - | - | - |
| 1778054740 | 8.89° C | 91% | 1007.8 hPa | 0 mm | - | - | - |
| 1778053300 | 8.89° C | 91% | 1007.4 hPa | 0 mm | - | - | - |
* Rain latest hour (hover to see other rain measurements)
** Current wind speed in m/s (hover to see current wind gust speed)